• In Belarus
  • List of Countries
  • For 7 days
  • Water Temperature
  • Satellite Maps
  • Weather Map
  • Weather Widgets
  • user-avatar
    Login

    Hourly Weather Porto

    Today, 18 January, Friday

    Time Temperature Precipitation Wind Pressure Humidity
    00:00 +6°C° 0 mm 2 mps 760 mmHg 78%
    01:00 +6°C° 0 mm 2 mps 760 mmHg 77%
    02:00 +7°C° 0 mm 1 mps 760 mmHg 76%
    03:00 +7°C° 0 mm 1 mps 760 mmHg 76%
    04:00 +7°C° 0 mm 1 mps 760 mmHg 76%
    05:00 +7°C° 0 mm 1 mps 759 mmHg 76%
    06:00 +7°C° 0 mm 1 mps 759 mmHg 75%
    07:00 +7°C° 0 mm 1 mps 759 mmHg 75%
    08:00 +8°C° 0 mm 1 mps 760 mmHg 74%
    09:00 +9°C° 0.1 mm 1 mps 759 mmHg 71%
    10:00 +10°C° 0.1 mm 1 mps 759 mmHg 68%
    11:00 +10°C° 0.1 mm 0 mps 759 mmHg 65%
    12:00 +11°C° 0 mm 1 mps 759 mmHg 65%
    13:00 +11°C° 0 mm 1 mps 758 mmHg 66%
    14:00 +12°C° 0 mm 2 mps 758 mmHg 67%
    15:00 +10°C° 0 mm 2 mps 758 mmHg 71%
    16:00 +9°C° 0 mm 2 mps 758 mmHg 75%
    17:00 +9°C° 0 mm 3 mps 758 mmHg 79%
    18:00 +9°C° 0 mm 3 mps 758 mmHg 80%
    19:00 +9°C° 0 mm 3 mps 758 mmHg 80%
    20:00 +9°C° 0 mm 3 mps 758 mmHg 81%
    21:00 +9°C° 0.1 mm 3 mps 757 mmHg 81%
    22:00 +9°C° 0.1 mm 3 mps 757 mmHg 81%
    23:00 +8°C° 0.1 mm 4 mps 757 mmHg 81%

    Tomorrow, 19 January, Saturday

    Time Temperature Precipitation Wind Pressure Humidity
    00:00 +8°C° 0.4 mm 4 mps 757 mmHg 83%
    01:00 +8°C° 0.4 mm 4 mps 756 mmHg 85%
    02:00 +8°C° 0.4 mm 5 mps 756 mmHg 87%
    03:00 +8°C° 1 mm 5 mps 755 mmHg 90%
    04:00 +8°C° 1 mm 5 mps 755 mmHg 93%
    05:00 +10°C° 1 mm 4 mps 754 mmHg 96%
    06:00 +9°C° 1.8 mm 5 mps 754 mmHg 96%
    07:00 +10°C° 1.8 mm 6 mps 753 mmHg 97%
    08:00 +11°C° 1.8 mm 6 mps 753 mmHg 97%
    09:00 +11°C° 3 mm 6 mps 753 mmHg 97%
    10:00 +11°C° 3 mm 6 mps 752 mmHg 97%
    11:00 +11°C° 3 mm 6 mps 752 mmHg 98%
    12:00 +13°C° 1.6 mm 6 mps 751 mmHg 95%
    13:00 +13°C° 1.6 mm 6 mps 751 mmHg 93%
    14:00 +13°C° 1.6 mm 6 mps 750 mmHg 91%
    15:00 +13°C° 0.7 mm 6 mps 750 mmHg 91%
    16:00 +13°C° 0.7 mm 6 mps 750 mmHg 92%
    17:00 +11°C° 0.7 mm 6 mps 751 mmHg 93%
    18:00 +11°C° 0.1 mm 7 mps 751 mmHg 92%
    19:00 +11°C° 0.1 mm 7 mps 752 mmHg 91%
    20:00 +10°C° 0.1 mm 7 mps 753 mmHg 91%
    21:00 +10°C° 0 mm 7 mps 753 mmHg 89%
    22:00 +10°C° 0 mm 7 mps 754 mmHg 87%
    23:00 +9°C° 0 mm 7 mps 754 mmHg 85%

    Day after tomorrow, 20 January, Sunday

    Time Temperature Precipitation Wind Pressure Humidity
    00:00 +9°C° 0 mm 7 mps 755 mmHg 85%
    01:00 +8°C° 0 mm 7 mps 756 mmHg 85%
    02:00 +8°C° 0 mm 6 mps 756 mmHg 85%
    03:00 +7°C° 0 mm 6 mps 757 mmHg 85%
    04:00 +7°C° 0 mm 6 mps 757 mmHg 85%
    05:00 +7°C° 0 mm 5 mps 758 mmHg 84%
    06:00 +7°C° 0 mm 5 mps 758 mmHg 84%
    07:00 +7°C° 0 mm 5 mps 759 mmHg 83%
    08:00 +7°C° 0 mm 4 mps 760 mmHg 83%
    09:00 +8°C° 0 mm 4 mps 760 mmHg 76%
    10:00 +10°C° 0 mm 4 mps 760 mmHg 69%
    11:00 +12°C° 0 mm 4 mps 761 mmHg 63%
    12:00 +12°C° 0 mm 5 mps 760 mmHg 61%
    13:00 +12°C° 0 mm 5 mps 760 mmHg 59%
    14:00 +13°C° 0 mm 5 mps 760 mmHg 57%
    15:00 +12°C° 0 mm 5 mps 761 mmHg 62%
    16:00 +10°C° 0 mm 5 mps 761 mmHg 68%
    17:00 +9°C° 0 mm 5 mps 761 mmHg 73%
    18:00 +8°C° 0 mm 5 mps 762 mmHg 75%
    19:00 +8°C° 0 mm 5 mps 763 mmHg 78%
    20:00 +7°C° 0 mm 5 mps 763 mmHg 80%
    21:00 +7°C° 0 mm 5 mps 763 mmHg 81%
    22:00 +7°C° 0 mm 5 mps 763 mmHg 82%
    23:00 +6°C° 0 mm 5 mps 764 mmHg 83%

    21 January, Monday

    Time Temperature Precipitation Wind Pressure Humidity
    00:00 +6°C° 0 mm 5 mps 764 mmHg 84%
    01:00 +6°C° 0 mm 5 mps 764 mmHg 84%
    02:00 +5°C° 0 mm 4 mps 763 mmHg 84%
    03:00 +5°C° 0 mm 4 mps 764 mmHg 84%
    04:00 +5°C° 0 mm 4 mps 764 mmHg 84%
    05:00 +5°C° 0 mm 4 mps 764 mmHg 84%
    06:00 +5°C° 0 mm 4 mps 764 mmHg 82%
    07:00 +5°C° 0 mm 4 mps 764 mmHg 80%
    08:00 +5°C° 0 mm 4 mps 765 mmHg 79%
    09:00 +7°C° 0 mm 4 mps 765 mmHg 72%
    10:00 +10°C° 0 mm 3 mps 765 mmHg 64%
    11:00 +12°C° 0 mm 3 mps 765 mmHg 57%
    12:00 +12°C° 0 mm 4 mps 764 mmHg 55%
    13:00 +13°C° 0 mm 4 mps 763 mmHg 54%
    14:00 +13°C° 0 mm 4 mps 763 mmHg 52%
    15:00 +12°C° 0 mm 4 mps 763 mmHg 58%
    16:00 +11°C° 0 mm 4 mps 763 mmHg 64%
    17:00 +9°C° 0 mm 5 mps 763 mmHg 70%
    18:00 +8°C° 0 mm 4 mps 764 mmHg 73%
    19:00 +8°C° 0 mm 4 mps 764 mmHg 75%
    20:00 +7°C° 0 mm 4 mps 764 mmHg 78%
    21:00 +7°C° 0 mm 4 mps 764 mmHg 79%
    22:00 +6°C° 0 mm 4 mps 764 mmHg 80%
    23:00 +7°C° 0 mm 3 mps 764 mmHg 81%

    22 January, Tuesday

    Time Temperature Precipitation Wind Pressure Humidity
    00:00 +5°C° 0 mm 3 mps 764 mmHg 82%
    01:00 +5°C° 0 mm 4 mps 763 mmHg 84%
    02:00 +5°C° 0 mm 4 mps 763 mmHg 85%
    03:00 +5°C° 0 mm 4 mps 763 mmHg 85%
    04:00 +5°C° 0 mm 4 mps 763 mmHg 85%
    05:00 +5°C° 0 mm 3 mps 763 mmHg 86%
    06:00 +5°C° 0 mm 3 mps 762 mmHg 85%
    07:00 +7°C° 0 mm 3 mps 762 mmHg 83%
    08:00 +7°C° 0 mm 3 mps 762 mmHg 82%
    09:00 +7°C° 0.7 mm 4 mps 761 mmHg 86%
    10:00 +8°C° 0.7 mm 6 mps 761 mmHg 90%
    11:00 +8°C° 0.7 mm 7 mps 761 mmHg 94%
    12:00 +7°C° 0.1 mm 8 mps 760 mmHg 86%
    13:00 +9°C° 0.1 mm 8 mps 760 mmHg 77%
    14:00 +8°C° 0.1 mm 9 mps 759 mmHg 69%
    15:00 +7°C° 0 mm 8 mps 759 mmHg 69%
    16:00 +6°C° 0 mm 8 mps 759 mmHg 68%
    17:00 +6°C° 0 mm 7 mps 760 mmHg 68%
    18:00 +6°C° 0 mm 7 mps 760 mmHg 70%
    19:00 +6°C° 0 mm 8 mps 760 mmHg 72%
    20:00 +6°C° 0 mm 8 mps 760 mmHg 75%
    21:00 +6°C° 0 mm 7 mps 760 mmHg 77%
    22:00 +5°C° 0 mm 7 mps 760 mmHg 78%
    23:00 +5°C° 0 mm 7 mps 760 mmHg 80%

    23 January, Wednesday

    Time Temperature Precipitation Wind Pressure Humidity
    00:00 +5°C° 0 mm 6 mps 760 mmHg 81%
    01:00 +5°C° 0 mm 6 mps 760 mmHg 82%
    02:00 +6°C° 0 mm 5 mps 760 mmHg 83%
    03:00 +6°C° 0 mm 5 mps 760 mmHg 84%
    04:00 +6°C° 0 mm 5 mps 760 mmHg 85%
    05:00 +6°C° 0 mm 5 mps 760 mmHg 86%
    06:00 +5°C° 0.2 mm 6 mps 759 mmHg 87%
    07:00 +7°C° 0.2 mm 6 mps 759 mmHg 88%
    08:00 +8°C° 0.2 mm 7 mps 759 mmHg 90%
    09:00 +8°C° 0.2 mm 7 mps 759 mmHg 88%
    10:00 +9°C° 0.2 mm 8 mps 758 mmHg 86%
    11:00 +8°C° 0.2 mm 9 mps 758 mmHg 84%
    12:00 +10°C° 0.1 mm 9 mps 758 mmHg 82%
    13:00 +10°C° 0.1 mm 9 mps 757 mmHg 81%
    14:00 +10°C° 0.1 mm 9 mps 756 mmHg 80%
    15:00 +10°C° 0.1 mm 9 mps 756 mmHg 81%
    16:00 +10°C° 0.1 mm 9 mps 756 mmHg 82%
    17:00 +10°C° 0.1 mm 8 mps 756 mmHg 84%
    18:00 +10°C° 0.2 mm 8 mps 755 mmHg 84%
    19:00 +10°C° 0.2 mm 9 mps 755 mmHg 84%
    20:00 +10°C° 0.2 mm 9 mps 755 mmHg 84%
    21:00 +10°C° 0.2 mm 9 mps 754 mmHg 85%
    22:00 +10°C° 0.2 mm 9 mps 753 mmHg 87%
    23:00 +10°C° 0.2 mm 9 mps 752 mmHg 89%
    Show more